Weather History for Auburn, CA

Change the Weather History Date:

Friday, January 4, 2013

  Actual Average Record
Temperature  
Mean Temperature 42 °F -  
Max Temperature 53 °F 51 °F 140 °F (2012)
Min Temperature 32 °F 35 °F 21 °F (1949)
Degree Days  
Heating Degree Days 22    
Moisture  
Dew Point 33 °F    
Average Humidity 67    
Maximum Humidity 93    
Minimum Humidity 47    
Precipitation  
Precipitation 0.00 in - - ()
Sea Level Pressure  
Sea Level Pressure 30.23 in    
Wind  
Wind Speed 3 mph (SE)    
Max Wind Speed 12 mph    
Max Gust Speed -    
Visibility 10 miles    
Events      
Averages and records for this station are not official NWS values.
T = Trace of Precipitation, MM = Missing Value Source: NWS Daily Summary

Daily Weather History Graph

Daily Weather History Graph

Search for Another Location

Airport:

Trip Planner

Search our weather history database for the weather conditions in past years. The results will help you decide how hot, cold, wet, or windy it might be!

Date:

Astronomy

Jan. 04, 2013 Rise Set
Actual Time 7:23 AM PST 4:55 PM PST
Civil Twilight 6:53 AM PST 5:25 PM PST
Nautical Twilight 6:20 AM PST 5:58 PM PST
Astronomical Twilight 5:48 AM PST 6:31 PM PST
Moon No Moon Rise 11:13 AM PST (1/4)
Length of Visible Light 10h 31m
Length of Day
9h 32m
Waning Gibbous, 54% of the Moon is Illuminated
Jan 4
Waning Gibbous
Jan 4
Last Quarter
Jan 11
New
Jan 18
First Quarter
Jan 26
Full

Hourly Weather History & Observations

Time (PST) Temp. Windchill Dew Point Humidity Pressure Visibility Wind Dir Wind Speed Gust Speed Precip Events Conditions
12:15 AM 35.6 °F - 32.0 °F 87% 30.24 in 10.0 mi Calm Calm - N/A   Clear
12:55 AM 35.6 °F - 32.0 °F 87% 30.24 in 10.0 mi Calm Calm - N/A   Clear
1:15 AM 35.6 °F - 32.0 °F 87% 30.23 in 10.0 mi Calm Calm - N/A   Clear
3:55 AM 37.4 °F 33.8 °F 30.2 °F 75% 30.23 in 10.0 mi East 4.6 mph - N/A   Clear
4:15 AM 39.2 °F - 30.2 °F 70% 30.23 in 10.0 mi Calm Calm - N/A   Clear
4:35 AM 37.4 °F 32.1 °F 30.2 °F 75% 30.23 in 10.0 mi East 6.9 mph - N/A   Clear
4:55 AM 41.0 °F 38.0 °F 30.2 °F 65% 30.23 in 10.0 mi East 4.6 mph - N/A   Clear
5:15 AM 39.2 °F 33.6 °F 30.2 °F 70% 30.22 in 10.0 mi East 8.1 mph - N/A   Clear
5:35 AM 41.0 °F 35.2 °F 30.2 °F 65% 30.22 in 10.0 mi East 9.2 mph - N/A   Clear
5:55 AM 41.0 °F 34.7 °F 30.2 °F 65% 30.22 in 10.0 mi East 10.4 mph - N/A   Clear
6:15 AM 39.2 °F 34.2 °F 28.4 °F 65% 30.23 in 10.0 mi ESE 6.9 mph - N/A   Clear
6:35 AM 42.8 °F 40.1 °F 28.4 °F 57% 30.24 in 10.0 mi East 4.6 mph - N/A   Clear
6:55 AM 35.6 °F 32.8 °F 30.2 °F 81% 30.25 in 10.0 mi NNE 3.5 mph - N/A   Clear
7:15 AM 33.8 °F - 28.4 °F 81% 30.25 in 10.0 mi Calm Calm - N/A   Clear
7:35 AM 33.8 °F - 28.4 °F 81% 30.25 in 10.0 mi Calm Calm - N/A   Clear
7:50 AM 32.0 °F 24.2 °F 24.8 °F 75% 30.43 in 10.0 mi WSW 9.2 mph - N/A   Clear
7:55 AM 37.4 °F 33.8 °F 28.4 °F 70% 30.26 in 10.0 mi East 4.6 mph - N/A   Clear
8:15 AM 42.8 °F 37.0 °F 28.4 °F 57% 30.25 in 10.0 mi East 10.4 mph - N/A   Clear
8:35 AM 42.8 °F 36.6 °F 30.2 °F 61% 30.25 in 10.0 mi East 11.5 mph - N/A   Clear
8:55 AM 44.6 °F 40.2 °F 30.2 °F 57% 30.26 in 10.0 mi East 8.1 mph - N/A   Clear
9:15 AM 46.4 °F - 28.4 °F 50% 30.27 in 10.0 mi Calm Calm - N/A   Clear
9:35 AM 48.2 °F - 30.2 °F 50% 30.27 in 10.0 mi ESE 4.6 mph - N/A   Clear
9:55 AM 50.0 °F - 30.2 °F 47% 30.27 in 10.0 mi Calm Calm - N/A   Clear
10:15 AM 51.8 °F - 32.0 °F 47% 30.27 in 10.0 mi Calm Calm - N/A   Clear
10:55 AM 51.8 °F - 32.0 °F 47% 30.27 in 10.0 mi Calm Calm - N/A   Clear
11:15 AM 51.8 °F - 32.0 °F 47% 30.26 in 10.0 mi SW 3.5 mph - N/A   Clear
11:35 AM 53.6 °F - 33.8 °F 47% 30.26 in 10.0 mi SSW 3.5 mph - N/A   Clear
11:55 AM 51.8 °F - 33.8 °F 50% 30.25 in 10.0 mi Calm Calm - N/A   Clear
12:15 PM 51.8 °F - 33.8 °F 50% 30.24 in 10.0 mi Calm Calm - N/A   Clear
12:35 PM 53.6 °F - 33.8 °F 47% 30.23 in 10.0 mi SW 4.6 mph - N/A   Clear
12:55 PM 53.6 °F - 35.6 °F 51% 30.23 in 10.0 mi SSW 4.6 mph - N/A   Clear
1:15 PM 53.6 °F - 35.6 °F 51% 30.22 in 10.0 mi SSW 5.8 mph - N/A   Clear
1:35 PM 53.6 °F - 35.6 °F 51% 30.21 in 10.0 mi SSW 3.5 mph - N/A   Clear
2:15 PM 53.6 °F - 35.6 °F 51% 30.20 in 10.0 mi South 4.6 mph - N/A   Clear
2:35 PM 53.6 °F - 35.6 °F 51% 30.20 in 10.0 mi SSW 5.8 mph - N/A   Clear
2:55 PM 53.6 °F - 37.4 °F 54% 30.20 in 10.0 mi Calm Calm - N/A   Clear
3:15 PM 53.6 °F - 37.4 °F 54% 30.20 in 10.0 mi SW 4.6 mph - N/A   Clear
3:35 PM 53.6 °F - 37.4 °F 54% 30.20 in 10.0 mi Calm Calm - N/A   Clear
3:55 PM 53.6 °F - 37.4 °F 54% 30.19 in 10.0 mi SW 4.6 mph - N/A   Clear
4:15 PM 51.8 °F - 37.4 °F 58% 30.19 in 10.0 mi Calm Calm - N/A   Clear
4:55 PM 48.2 °F - 35.6 °F 62% 30.19 in 10.0 mi Calm Calm - N/A   Clear
5:15 PM 44.6 °F - 35.6 °F 71% 30.19 in 10.0 mi Calm Calm - N/A   Clear
5:35 PM 41.0 °F - 35.6 °F 81% 30.19 in 10.0 mi Calm Calm - N/A   Clear
5:55 PM 39.2 °F - 35.6 °F 87% 30.19 in 10.0 mi Calm Calm - N/A   Clear
6:15 PM 37.4 °F - 33.8 °F 87% 30.20 in 10.0 mi Calm Calm - N/A   Clear
6:35 PM 39.2 °F - 33.8 °F 81% 30.20 in 10.0 mi Calm Calm - N/A   Clear
7:15 PM 37.4 °F - 33.8 °F 87% 30.21 in 10.0 mi Calm Calm - N/A   Clear
7:35 PM 35.6 °F - 33.8 °F 93% 30.21 in 10.0 mi Calm Calm - N/A   Clear
7:55 PM 39.2 °F - 35.6 °F 87% 30.22 in 10.0 mi Calm Calm - N/A   Clear
8:15 PM 39.2 °F - 35.6 °F 87% 30.22 in 10.0 mi Calm Calm - N/A   Clear
8:35 PM 41.0 °F 38.0 °F 35.6 °F 81% 30.22 in 10.0 mi East 4.6 mph - N/A   Clear
8:55 PM 41.0 °F 36.4 °F 37.4 °F 87% 30.23 in 10.0 mi East 6.9 mph - N/A   Clear
9:15 PM 44.6 °F 39.7 °F 37.4 °F 76% 30.23 in 10.0 mi East 9.2 mph - N/A   Clear
9:35 PM 44.6 °F 40.2 °F 37.4 °F 76% 30.23 in 10.0 mi East 8.1 mph - N/A   Clear
9:55 PM 44.6 °F 39.7 °F 35.6 °F 71% 30.23 in 10.0 mi East 9.2 mph - N/A   Clear
10:15 PM 44.6 °F 40.2 °F 35.6 °F 71% 30.23 in 10.0 mi East 8.1 mph - N/A   Clear
10:55 PM 44.6 °F 42.2 °F 35.6 °F 71% 30.24 in 10.0 mi ESE 4.6 mph - N/A   Clear
11:15 PM 44.6 °F 40.7 °F 35.6 °F 71% 30.24 in 10.0 mi ESE 6.9 mph - N/A   Clear
11:35 PM 44.6 °F 42.2 °F 35.6 °F 71% 30.23 in 10.0 mi ESE 4.6 mph - N/A   Clear
11:55 PM 44.6 °F 41.4 °F 35.6 °F 71% 30.23 in 10.0 mi ESE 5.8 mph - N/A   Clear